Location: Unspecified
(37.1280°N, 0.0000°E)
Time: 08:34:24
(UTC+00:00)

DX 1 - Visible Passes

Search period start: 04 April 2026 00:00
Search period end: 14 April 2026 00:00
Orbit: 594 x 604 km, 98.4° (Epoch: 29 March)

Date Brightness Start Highest point End Pass type
(mag) Time Alt. Az. Time Alt. Az. Time Alt. Az.
4 Apr ? 02:31:55 10° NNE 02:33:13 19° NE 02:33:13 19° NE visible
4 Apr ? 04:08:55 10° NNW 04:09:56 13° NW 04:09:56 13° NW visible
5 Apr ? 02:42:27 10° NNE 02:44:08 23° NNE 02:44:08 23° NNE visible
5 Apr ? 04:20:37 10° NW 04:20:52 10° NW 04:20:52 10° NW visible
6 Apr ? 02:53:03 10° NNE 02:55:03 27° NNE 02:55:03 27° NNE visible
7 Apr ? 03:03:42 10° N 03:05:58 31° N 03:05:58 31° N visible
8 Apr ? 03:14:24 10° N 03:16:52 33° N 03:16:52 33° N visible
9 Apr ? 03:25:09 10° N 03:27:45 31° NNW 03:27:45 31° NNW visible
10 Apr ? 02:01:09 10° NE 02:01:55 13° ENE 02:01:55 13° ENE visible
10 Apr ? 03:35:57 10° N 03:38:39 28° NW 03:38:39 28° NW visible
11 Apr ? 02:11:20 10° NE 02:12:48 17° ENE 02:12:48 17° ENE visible
11 Apr ? 03:46:48 10° NNW 03:49:31 24° NW 03:49:31 24° NW visible
12 Apr ? 02:21:40 10° NE 02:23:40 22° ENE 02:23:40 22° ENE visible
12 Apr ? 03:57:46 10° NNW 04:00:23 19° WNW 04:00:23 19° WNW visible
13 Apr ? 02:32:04 10° NNE 02:34:31 29° NE 02:34:31 29° NE visible
13 Apr ? 04:08:53 10° NNW 04:11:16 15° WNW 04:11:16 15° WNW visible
